Year,Month,Day,Hour,Minute,Value (Times are PST for temperature in C)
2015,05,29,00,00,15.70
2015,05,29,00,01,15.70
2015,05,29,00,02,15.70
2015,05,29,00,03,15.70
2015,05,29,00,04,15.70
2015,05,29,00,05,15.70
2015,05,29,00,06,15.70
2015,05,29,00,07,15.70
2015,05,29,00,08,15.70
2015,05,29,00,09,15.60
2015,05,29,00,10,15.60
2015,05,29,00,11,15.60
2015,05,29,00,12,15.60
2015,05,29,00,13,15.60
2015,05,29,00,14,15.60
2015,05,29,00,15,15.60
2015,05,29,00,16,15.60
2015,05,29,00,17,15.60
2015,05,29,00,18,15.60
2015,05,29,00,19,15.60
2015,05,29,00,20,15.60
2015,05,29,00,21,15.60
2015,05,29,00,22,15.60
2015,05,29,00,23,15.60
2015,05,29,00,24,15.60
2015,05,29,00,25,15.60
2015,05,29,00,26,15.60
2015,05,29,00,27,15.60
2015,05,29,00,28,15.60
2015,05,29,00,29,15.60
2015,05,29,00,30,15.60
2015,05,29,00,31,15.60
2015,05,29,00,32,15.50
2015,05,29,00,33,15.50
2015,05,29,00,34,15.50
2015,05,29,00,35,15.50
2015,05,29,00,36,15.40
2015,05,29,00,37,15.40
2015,05,29,00,38,15.40
2015,05,29,00,39,15.40
2015,05,29,00,40,15.30
2015,05,29,00,41,15.30
2015,05,29,00,42,15.30
2015,05,29,00,43,15.30
2015,05,29,00,44,15.30
2015,05,29,00,45,15.30
2015,05,29,00,46,15.20
2015,05,29,00,47,15.20
2015,05,29,00,48,15.20
2015,05,29,00,49,15.20
2015,05,29,00,50,15.10
2015,05,29,00,51,15.10
2015,05,29,00,52,15.10
2015,05,29,00,53,15.00
2015,05,29,00,54,15.00
2015,05,29,00,55,15.00
2015,05,29,00,56,15.00
2015,05,29,00,57,15.00
2015,05,29,00,58,15.00
2015,05,29,00,59,15.00
2015,05,29,01,00,15.00
2015,05,29,01,01,15.00
2015,05,29,01,02,15.00
2015,05,29,01,03,15.00
2015,05,29,01,04,15.00
2015,05,29,01,05,15.00
2015,05,29,01,06,15.00
2015,05,29,01,07,15.00
2015,05,29,01,08,15.00
2015,05,29,01,09,15.00
2015,05,29,01,10,15.00
2015,05,29,01,11,15.00
2015,05,29,01,12,14.90
2015,05,29,01,13,14.90
2015,05,29,01,14,14.90
2015,05,29,01,15,14.90
2015,05,29,01,16,14.80
2015,05,29,01,17,14.80
2015,05,29,01,18,14.90
2015,05,29,01,19,14.80
2015,05,29,01,20,14.80
2015,05,29,01,21,14.80
2015,05,29,01,22,14.80
2015,05,29,01,23,14.80
2015,05,29,01,24,14.80
2015,05,29,01,25,14.70
2015,05,29,01,26,14.70
2015,05,29,01,27,14.70
2015,05,29,01,28,14.70
2015,05,29,01,29,14.70
2015,05,29,01,30,14.70
2015,05,29,01,31,14.70
2015,05,29,01,32,14.70
2015,05,29,01,33,14.70
2015,05,29,01,34,14.70
2015,05,29,01,35,14.70
2015,05,29,01,36,14.70
2015,05,29,01,37,14.70
2015,05,29,01,38,14.70
2015,05,29,01,39,14.70
2015,05,29,01,40,14.70
2015,05,29,01,41,14.70
2015,05,29,01,42,14.70
2015,05,29,01,43,14.70
2015,05,29,01,44,14.70
2015,05,29,01,45,14.70
2015,05,29,01,46,14.70
2015,05,29,01,47,14.70
2015,05,29,01,48,14.70
2015,05,29,01,49,14.70
2015,05,29,01,50,14.70
2015,05,29,01,51,14.70
2015,05,29,01,52,14.70
2015,05,29,01,53,14.70
2015,05,29,01,54,14.70
2015,05,29,01,55,14.70
2015,05,29,01,56,14.70
2015,05,29,01,57,14.70
2015,05,29,01,58,14.70
2015,05,29,01,59,14.70
2015,05,29,02,00,14.70
2015,05,29,02,01,14.70
2015,05,29,02,02,14.70
2015,05,29,02,03,14.70
2015,05,29,02,04,14.70
2015,05,29,02,05,14.70
2015,05,29,02,06,14.70
2015,05,29,02,07,14.70
2015,05,29,02,08,14.70
2015,05,29,02,09,14.70
2015,05,29,02,10,14.70
2015,05,29,02,11,14.60
2015,05,29,02,12,14.60
2015,05,29,02,13,14.60
2015,05,29,02,14,14.60
2015,05,29,02,15,14.60
2015,05,29,02,16,14.60
2015,05,29,02,17,14.60
2015,05,29,02,18,14.60
2015,05,29,02,19,14.60
2015,05,29,02,20,14.60
2015,05,29,02,21,14.60
2015,05,29,02,22,14.60
2015,05,29,02,23,14.60
2015,05,29,02,24,14.60
2015,05,29,02,25,14.60
2015,05,29,02,26,14.60
2015,05,29,02,27,14.60
2015,05,29,02,28,14.60
2015,05,29,02,29,14.50
2015,05,29,02,30,14.50
2015,05,29,02,31,14.50
2015,05,29,02,32,14.50
2015,05,29,02,33,14.50
2015,05,29,02,34,14.40
2015,05,29,02,35,14.40
2015,05,29,02,36,14.40
2015,05,29,02,37,14.40
2015,05,29,02,38,14.40
2015,05,29,02,39,14.40
2015,05,29,02,40,14.40
2015,05,29,02,41,14.40
2015,05,29,02,42,14.40
2015,05,29,02,43,14.40
2015,05,29,02,44,14.40
2015,05,29,02,45,14.40
2015,05,29,02,46,14.40
2015,05,29,02,47,14.40
2015,05,29,02,48,14.40
2015,05,29,02,49,14.40
2015,05,29,02,50,14.40
2015,05,29,02,51,14.40
2015,05,29,02,52,14.30
2015,05,29,02,53,14.30
2015,05,29,02,54,14.30
2015,05,29,02,55,14.30
2015,05,29,02,56,14.30
2015,05,29,02,57,14.30
2015,05,29,02,58,14.30
2015,05,29,02,59,14.30
2015,05,29,03,00,14.30
2015,05,29,03,01,14.30
2015,05,29,03,02,14.30
2015,05,29,03,03,14.30
2015,05,29,03,06,14.20
2015,05,29,03,07,14.20
2015,05,29,03,08,14.20
2015,05,29,03,09,14.20
2015,05,29,03,10,14.20
2015,05,29,03,11,14.20
2015,05,29,03,12,14.20
2015,05,29,03,13,14.20
2015,05,29,03,14,14.10
2015,05,29,03,15,14.10
2015,05,29,03,16,14.10
2015,05,29,03,17,14.10
2015,05,29,03,18,14.10
2015,05,29,03,19,14.10
2015,05,29,03,20,14.10
2015,05,29,03,21,14.10
2015,05,29,03,22,14.10
2015,05,29,03,23,14.10
2015,05,29,03,24,14.00
2015,05,29,03,25,14.00
2015,05,29,03,26,14.00
2015,05,29,03,27,14.00
2015,05,29,03,28,14.00
2015,05,29,03,29,14.00
2015,05,29,03,30,13.90
2015,05,29,03,31,13.90
2015,05,29,03,32,13.90
2015,05,29,03,33,13.90
2015,05,29,03,34,13.90
2015,05,29,03,35,13.90
2015,05,29,03,36,13.90
2015,05,29,03,37,13.90
2015,05,29,03,38,13.80
2015,05,29,03,39,13.80
2015,05,29,03,40,13.80
2015,05,29,03,41,13.80
2015,05,29,03,42,13.80
2015,05,29,03,43,13.80
2015,05,29,03,44,13.70
2015,05,29,03,45,13.70
2015,05,29,03,46,13.70
2015,05,29,03,47,13.70
2015,05,29,03,48,13.70
2015,05,29,03,49,13.70
2015,05,29,03,50,13.60
2015,05,29,03,51,13.60
2015,05,29,03,52,13.60
2015,05,29,03,53,13.60
2015,05,29,03,54,13.60
2015,05,29,03,55,13.60
2015,05,29,03,56,13.60
2015,05,29,03,57,13.60
2015,05,29,03,58,13.60
2015,05,29,03,59,13.60
2015,05,29,04,00,13.60
2015,05,29,04,01,13.60
2015,05,29,04,02,13.60
2015,05,29,04,03,13.60
2015,05,29,04,04,13.60
2015,05,29,04,05,13.60
2015,05,29,04,06,13.60
2015,05,29,04,07,13.60
2015,05,29,04,08,13.60
2015,05,29,04,09,13.60
2015,05,29,04,10,13.50
2015,05,29,04,11,13.50
2015,05,29,04,12,13.50
2015,05,29,04,13,13.40
2015,05,29,04,14,13.40
2015,05,29,04,15,13.40
2015,05,29,04,16,13.40
2015,05,29,04,17,13.40
2015,05,29,04,18,13.40
2015,05,29,04,19,13.30
2015,05,29,04,20,13.30
2015,05,29,04,21,13.30
2015,05,29,04,22,13.30
2015,05,29,04,23,13.30
2015,05,29,04,24,13.30
2015,05,29,04,25,13.30
2015,05,29,04,26,13.30
2015,05,29,04,27,13.30
2015,05,29,04,28,13.30
2015,05,29,04,29,13.30
2015,05,29,04,30,13.30
2015,05,29,04,31,13.30
2015,05,29,04,32,13.30
2015,05,29,04,33,13.30
2015,05,29,04,34,13.30
2015,05,29,04,35,13.20
2015,05,29,04,36,13.20
2015,05,29,04,37,13.20
2015,05,29,04,38,13.20
2015,05,29,04,39,13.20
2015,05,29,04,40,13.20
2015,05,29,04,41,13.20
2015,05,29,04,42,13.20
2015,05,29,04,43,13.10
2015,05,29,04,44,13.10
2015,05,29,04,45,13.10
2015,05,29,04,46,13.10
2015,05,29,04,47,13.10
2015,05,29,04,48,13.00
2015,05,29,04,49,13.00
2015,05,29,04,50,13.00
2015,05,29,04,51,13.00
2015,05,29,04,52,12.90
2015,05,29,04,53,12.90
2015,05,29,04,54,12.90
2015,05,29,04,55,12.90
2015,05,29,04,56,12.90
2015,05,29,04,57,12.80
2015,05,29,04,58,12.80
2015,05,29,04,59,12.80
2015,05,29,05,00,12.90
2015,05,29,05,01,12.80
2015,05,29,05,02,12.80
2015,05,29,05,03,12.80
2015,05,29,05,04,12.80
2015,05,29,05,05,12.80
2015,05,29,05,06,12.80
2015,05,29,05,07,12.80
2015,05,29,05,08,12.80
2015,05,29,05,09,12.70
2015,05,29,05,10,12.70
2015,05,29,05,11,12.70
2015,05,29,05,12,12.70
2015,05,29,05,13,12.70
2015,05,29,05,14,12.70
2015,05,29,05,15,12.70
2015,05,29,05,16,12.70
2015,05,29,05,17,12.70
2015,05,29,05,18,12.60
2015,05,29,05,19,12.60
2015,05,29,05,20,12.60
2015,05,29,05,21,12.60
2015,05,29,05,22,12.60
2015,05,29,05,23,12.60
2015,05,29,05,24,12.60
2015,05,29,05,25,12.60
2015,05,29,05,26,12.60
2015,05,29,05,27,12.60
2015,05,29,05,28,12.60
2015,05,29,05,29,12.60
2015,05,29,05,30,12.60
2015,05,29,05,31,12.50
2015,05,29,05,32,12.50
2015,05,29,05,33,12.50
2015,05,29,05,34,12.50
2015,05,29,05,35,12.40
2015,05,29,05,36,12.40
2015,05,29,05,37,12.40
2015,05,29,05,38,12.40
2015,05,29,05,39,12.40
2015,05,29,05,40,12.40
2015,05,29,05,41,12.40
2015,05,29,05,42,12.30
2015,05,29,05,43,12.30
2015,05,29,05,44,12.30
2015,05,29,05,45,12.30
2015,05,29,05,46,12.30
2015,05,29,05,47,12.30
2015,05,29,05,48,12.30
2015,05,29,05,49,12.30
2015,05,29,05,50,12.30
2015,05,29,05,51,12.30
2015,05,29,05,52,12.30
2015,05,29,05,53,12.30
2015,05,29,05,54,12.20
2015,05,29,05,55,12.20
2015,05,29,05,56,12.20
2015,05,29,05,57,12.20
2015,05,29,05,58,12.20
2015,05,29,05,59,12.20
2015,05,29,06,00,12.20
2015,05,29,06,01,12.20
2015,05,29,06,02,12.20
2015,05,29,06,03,12.20
2015,05,29,06,04,12.20
2015,05,29,06,05,12.20
2015,05,29,06,06,12.20
2015,05,29,06,07,12.20
2015,05,29,06,08,12.20
2015,05,29,06,09,12.20
2015,05,29,06,10,12.20
2015,05,29,06,11,12.20
2015,05,29,06,12,12.20
2015,05,29,06,13,12.20
2015,05,29,06,14,12.20
2015,05,29,06,15,12.20
2015,05,29,06,16,12.20
2015,05,29,06,17,12.20
2015,05,29,06,18,12.20
2015,05,29,06,19,12.20
2015,05,29,06,20,12.20
2015,05,29,06,21,12.20
2015,05,29,06,22,12.20
2015,05,29,06,23,12.20
2015,05,29,06,24,12.20
2015,05,29,06,25,12.20
2015,05,29,06,26,12.20
2015,05,29,06,27,12.20
2015,05,29,06,28,12.20
2015,05,29,06,29,12.30
2015,05,29,06,30,12.30
2015,05,29,06,31,12.30
2015,05,29,06,32,12.30
2015,05,29,06,33,12.30
2015,05,29,06,34,12.30
2015,05,29,06,35,12.30
2015,05,29,06,36,12.40
2015,05,29,06,37,12.40
2015,05,29,06,38,12.40
2015,05,29,06,39,12.40
2015,05,29,06,40,12.50
2015,05,29,06,41,12.50
2015,05,29,06,42,12.60
2015,05,29,06,43,12.60
2015,05,29,06,44,12.60
2015,05,29,06,45,12.70
2015,05,29,06,46,12.70
2015,05,29,06,47,12.70
2015,05,29,06,48,12.70
2015,05,29,06,49,12.70
2015,05,29,06,50,12.80
2015,05,29,06,51,12.80
2015,05,29,06,52,12.80
2015,05,29,06,53,12.80
2015,05,29,06,54,12.90
2015,05,29,06,55,12.90
2015,05,29,06,56,12.90
2015,05,29,06,57,13.00
2015,05,29,06,58,13.00
2015,05,29,06,59,13.10
2015,05,29,07,00,13.20
2015,05,29,07,01,13.20
2015,05,29,07,02,13.30
2015,05,29,07,03,13.40
2015,05,29,07,04,13.60
2015,05,29,07,05,13.70
2015,05,29,07,06,13.70
2015,05,29,07,07,13.80
2015,05,29,07,08,13.90
2015,05,29,07,09,13.90
2015,05,29,07,10,14.00
2015,05,29,07,11,14.00
2015,05,29,07,12,14.10
2015,05,29,07,13,14.20
2015,05,29,07,14,14.20
2015,05,29,07,15,14.30
2015,05,29,07,16,14.30
2015,05,29,07,17,14.40
2015,05,29,07,18,14.40
2015,05,29,07,19,14.50
2015,05,29,07,20,14.60
2015,05,29,07,21,14.70
2015,05,29,07,22,14.80
2015,05,29,07,23,15.00
2015,05,29,07,24,15.00
2015,05,29,07,25,15.00
2015,05,29,07,26,15.10
2015,05,29,07,27,15.20
2015,05,29,07,28,15.30
2015,05,29,07,29,15.40
2015,05,29,07,30,15.50
2015,05,29,07,31,15.50
2015,05,29,07,32,15.60
2015,05,29,07,33,15.60
2015,05,29,07,34,15.60
2015,05,29,07,35,15.70
2015,05,29,07,36,15.70
2015,05,29,07,37,15.80
2015,05,29,07,38,15.80
2015,05,29,07,39,15.90
2015,05,29,07,40,15.90
2015,05,29,07,41,15.90
2015,05,29,07,42,16.00
2015,05,29,07,43,16.10
2015,05,29,07,44,16.10
2015,05,29,07,45,16.20
2015,05,29,07,46,16.20
2015,05,29,07,47,16.30
2015,05,29,07,48,16.30
2015,05,29,07,49,16.40
2015,05,29,07,50,16.50
2015,05,29,07,51,16.50
2015,05,29,07,52,16.60
2015,05,29,07,53,16.70
2015,05,29,07,54,16.80
2015,05,29,07,55,16.90
2015,05,29,07,56,17.00
2015,05,29,07,57,17.10
2015,05,29,07,58,17.10
2015,05,29,07,59,17.20
2015,05,29,08,00,17.20
2015,05,29,08,01,17.30
2015,05,29,08,02,17.40
2015,05,29,08,03,17.40
2015,05,29,08,04,17.40
2015,05,29,08,05,17.40
2015,05,29,08,06,17.40
2015,05,29,08,07,17.50
2015,05,29,08,08,17.40
2015,05,29,08,09,17.40
2015,05,29,08,10,17.40
2015,05,29,08,11,17.50
2015,05,29,08,12,17.50
2015,05,29,08,13,17.50
2015,05,29,08,14,17.50
2015,05,29,08,15,17.60
2015,05,29,08,16,17.60
2015,05,29,08,17,17.60
2015,05,29,08,18,17.60
2015,05,29,08,19,17.50
2015,05,29,08,20,17.60
2015,05,29,08,21,17.60
2015,05,29,08,22,17.60
2015,05,29,08,23,17.60
2015,05,29,08,24,17.70
2015,05,29,08,25,17.70
2015,05,29,08,26,17.70
2015,05,29,08,27,17.70
2015,05,29,08,28,17.70
2015,05,29,08,29,17.80
2015,05,29,08,30,17.80
2015,05,29,08,31,17.90
2015,05,29,08,32,17.90
2015,05,29,08,33,17.90
2015,05,29,08,34,17.90
2015,05,29,08,35,17.80
2015,05,29,08,36,17.80
2015,05,29,08,37,17.80
2015,05,29,08,38,17.80
2015,05,29,08,39,17.80
2015,05,29,08,40,17.80
2015,05,29,08,41,17.90
2015,05,29,08,42,17.90
2015,05,29,08,43,17.90
2015,05,29,08,44,17.90
2015,05,29,08,45,18.00
2015,05,29,08,46,18.00
2015,05,29,08,47,18.10
2015,05,29,08,48,18.20
2015,05,29,08,49,18.20
2015,05,29,08,50,18.30
2015,05,29,08,51,18.30
2015,05,29,08,52,18.40
2015,05,29,08,53,18.40
2015,05,29,08,54,18.40
2015,05,29,08,55,18.40
2015,05,29,08,56,18.50
2015,05,29,08,57,18.50
2015,05,29,08,58,18.60
2015,05,29,08,59,18.60
2015,05,29,09,00,18.60
2015,05,29,09,01,18.60
2015,05,29,09,02,18.70
2015,05,29,09,03,18.70
2015,05,29,09,04,18.70
2015,05,29,09,05,18.70
2015,05,29,09,06,18.70
2015,05,29,09,07,18.70
2015,05,29,09,08,18.70
2015,05,29,09,09,18.80
2015,05,29,09,10,18.80
2015,05,29,09,11,18.90
2015,05,29,09,12,18.80
2015,05,29,09,13,18.80
2015,05,29,09,14,18.80
2015,05,29,09,15,18.80
2015,05,29,09,16,18.80
2015,05,29,09,17,18.80
2015,05,29,09,18,18.90
2015,05,29,09,19,18.90
2015,05,29,09,20,19.00
2015,05,29,09,21,19.00
2015,05,29,09,22,19.10
2015,05,29,09,23,19.10
2015,05,29,09,24,19.30
2015,05,29,09,25,19.40
2015,05,29,09,26,19.50
2015,05,29,09,27,19.60
2015,05,29,09,28,19.70
2015,05,29,09,29,19.80
2015,05,29,09,30,19.90
2015,05,29,09,31,19.90
2015,05,29,09,32,19.90
2015,05,29,09,33,19.90
2015,05,29,09,34,20.00
2015,05,29,09,35,20.00
2015,05,29,09,36,20.10
2015,05,29,09,37,20.10
2015,05,29,09,38,20.10
2015,05,29,09,39,20.10
2015,05,29,09,40,20.20
2015,05,29,09,41,20.20
2015,05,29,09,42,20.10
2015,05,29,09,43,20.10
2015,05,29,09,44,20.00
2015,05,29,09,45,19.90
2015,05,29,09,46,19.80
2015,05,29,09,47,19.80
2015,05,29,09,48,19.80
2015,05,29,09,49,19.80
2015,05,29,09,50,19.70
2015,05,29,09,51,19.70
2015,05,29,09,52,19.70
2015,05,29,09,53,19.70
2015,05,29,09,54,19.70
2015,05,29,09,55,19.70
2015,05,29,09,56,19.80
2015,05,29,09,57,19.80
2015,05,29,09,58,19.80
2015,05,29,09,59,19.80
2015,05,29,10,00,19.90
2015,05,29,10,01,20.00
2015,05,29,10,02,20.00
2015,05,29,10,03,20.00
2015,05,29,10,04,20.00
2015,05,29,10,05,20.10
2015,05,29,10,06,20.10
2015,05,29,10,07,20.10
2015,05,29,10,08,20.20
2015,05,29,10,09,20.20
2015,05,29,10,10,20.30
2015,05,29,10,11,20.30
2015,05,29,10,12,20.20
2015,05,29,10,13,20.10
2015,05,29,10,14,20.10
2015,05,29,10,15,20.10
2015,05,29,10,16,20.20
2015,05,29,10,17,20.30
2015,05,29,10,18,20.40
2015,05,29,10,19,20.40
2015,05,29,10,20,20.40
2015,05,29,10,21,20.40
2015,05,29,10,22,20.30
2015,05,29,10,23,20.20
2015,05,29,10,24,20.10
2015,05,29,10,25,20.00
2015,05,29,10,26,19.90
2015,05,29,10,27,19.90
2015,05,29,10,28,20.00
2015,05,29,10,29,20.10
2015,05,29,10,30,20.10
2015,05,29,10,31,20.20
2015,05,29,10,32,20.30
2015,05,29,10,33,20.30
2015,05,29,10,34,20.20
2015,05,29,10,35,20.20
2015,05,29,10,36,20.20
2015,05,29,10,37,20.30
2015,05,29,10,38,20.30
2015,05,29,10,39,20.20
2015,05,29,10,40,20.20
2015,05,29,10,41,20.20
2015,05,29,10,42,20.20
2015,05,29,10,43,20.30
2015,05,29,10,44,20.40
2015,05,29,10,45,20.20
2015,05,29,10,46,20.20
2015,05,29,10,47,20.20
2015,05,29,10,48,20.00
2015,05,29,10,49,19.90
2015,05,29,10,50,19.90
2015,05,29,10,51,19.90
2015,05,29,10,52,20.00
2015,05,29,10,53,20.20
2015,05,29,10,54,20.30
2015,05,29,10,55,20.30
2015,05,29,10,56,20.40
2015,05,29,10,57,20.50
2015,05,29,10,58,20.60
2015,05,29,10,59,20.70
2015,05,29,11,00,20.80
2015,05,29,11,01,20.80
2015,05,29,11,02,20.80
2015,05,29,11,03,20.70
2015,05,29,11,04,20.50
2015,05,29,11,05,20.20
2015,05,29,11,06,20.00
2015,05,29,11,07,19.90
2015,05,29,11,08,19.90
2015,05,29,11,09,19.90
2015,05,29,11,10,19.90
2015,05,29,11,11,19.90
2015,05,29,11,12,20.00
2015,05,29,11,13,20.10
2015,05,29,11,14,20.10
2015,05,29,11,15,20.20
2015,05,29,11,16,20.20
2015,05,29,11,17,20.30
2015,05,29,11,18,20.40
2015,05,29,11,19,20.50
2015,05,29,11,20,20.60
2015,05,29,11,21,20.70
2015,05,29,11,22,20.80
2015,05,29,11,23,20.80
2015,05,29,11,24,20.80
2015,05,29,11,25,20.60
2015,05,29,11,26,20.50
2015,05,29,11,27,20.50
2015,05,29,11,28,20.40
2015,05,29,11,29,20.40
2015,05,29,11,30,20.40
2015,05,29,11,31,20.40
2015,05,29,11,32,20.40
2015,05,29,11,33,20.40
2015,05,29,11,34,20.50
2015,05,29,11,35,20.40
2015,05,29,11,36,20.40
2015,05,29,11,37,20.50
2015,05,29,11,38,20.50
2015,05,29,11,39,20.60
2015,05,29,11,40,20.60
2015,05,29,11,41,20.70
2015,05,29,11,42,20.50
2015,05,29,11,43,20.40
2015,05,29,11,44,20.40
2015,05,29,11,45,20.30
2015,05,29,11,46,20.30
2015,05,29,11,47,20.30
2015,05,29,11,48,20.30
2015,05,29,11,49,20.30
2015,05,29,11,50,20.30
2015,05,29,11,51,20.30
2015,05,29,11,52,20.40
2015,05,29,11,53,20.60
2015,05,29,11,54,20.70
2015,05,29,11,55,20.70
2015,05,29,11,56,20.80
2015,05,29,11,57,20.80
2015,05,29,11,58,20.90
2015,05,29,11,59,21.00
2015,05,29,12,00,21.10
2015,05,29,12,01,21.10
2015,05,29,12,02,21.20
2015,05,29,12,03,21.30
2015,05,29,12,04,21.40
2015,05,29,12,05,21.50
2015,05,29,12,06,21.60
2015,05,29,12,07,21.60
2015,05,29,12,08,21.50
2015,05,29,12,09,21.40
2015,05,29,12,10,21.30
2015,05,29,12,11,21.20
2015,05,29,12,12,21.00
2015,05,29,12,13,20.80
2015,05,29,12,14,20.80
2015,05,29,12,15,20.80
2015,05,29,12,16,20.90
2015,05,29,12,17,20.90
2015,05,29,12,18,20.90
2015,05,29,12,19,21.00
2015,05,29,12,20,21.10
2015,05,29,12,21,21.00
2015,05,29,12,22,20.90
2015,05,29,12,23,20.80
2015,05,29,12,24,20.70
2015,05,29,12,25,20.60
2015,05,29,12,26,20.50
2015,05,29,12,27,20.50
2015,05,29,12,28,20.40
2015,05,29,12,29,20.40
2015,05,29,12,30,20.40
2015,05,29,12,31,20.50
2015,05,29,12,32,20.60
2015,05,29,12,33,20.60
2015,05,29,12,34,20.60
2015,05,29,12,35,20.70
2015,05,29,12,36,20.80
2015,05,29,12,37,20.80
2015,05,29,12,38,20.90
2015,05,29,12,39,20.80
2015,05,29,12,40,20.80
2015,05,29,12,41,20.90
2015,05,29,12,42,21.00
2015,05,29,12,43,21.00
2015,05,29,12,44,20.90
2015,05,29,12,45,21.00
2015,05,29,12,46,21.10
2015,05,29,12,47,21.20
2015,05,29,12,48,21.30
2015,05,29,12,49,21.40
2015,05,29,12,50,21.50
2015,05,29,12,51,21.60
2015,05,29,12,52,21.70
2015,05,29,12,53,21.80
2015,05,29,12,54,21.80
2015,05,29,12,55,21.90
2015,05,29,12,56,21.90
2015,05,29,12,57,22.00
2015,05,29,12,58,22.10
2015,05,29,12,59,22.10
2015,05,29,13,00,22.20
2015,05,29,13,01,22.20
2015,05,29,13,02,22.30
2015,05,29,13,03,22.30
2015,05,29,13,04,22.30
2015,05,29,13,05,22.30
2015,05,29,13,06,22.20
2015,05,29,13,07,22.10
2015,05,29,13,08,22.20
2015,05,29,13,09,22.30
2015,05,29,13,10,22.40
2015,05,29,13,11,22.40
2015,05,29,13,12,22.60
2015,05,29,13,13,22.70
2015,05,29,13,14,22.90
2015,05,29,13,15,23.00
2015,05,29,13,16,23.20
2015,05,29,13,17,23.40
2015,05,29,13,18,23.40
2015,05,29,13,19,23.30
2015,05,29,13,20,23.20
2015,05,29,13,21,23.10
2015,05,29,13,22,23.20
2015,05,29,13,23,23.30
2015,05,29,13,24,23.50
2015,05,29,13,25,23.70
2015,05,29,13,26,24.00
2015,05,29,13,27,24.10
2015,05,29,13,28,24.10
2015,05,29,13,29,24.00
2015,05,29,13,30,23.80
2015,05,29,13,31,23.70
2015,05,29,13,32,23.70
2015,05,29,13,33,23.80
2015,05,29,13,34,23.90
2015,05,29,13,35,23.90
2015,05,29,13,36,23.80
2015,05,29,13,37,23.70
2015,05,29,13,38,23.70
2015,05,29,13,39,23.70
2015,05,29,13,40,23.80
2015,05,29,13,41,23.80
2015,05,29,13,42,23.90
2015,05,29,13,43,24.00
2015,05,29,13,44,24.10
2015,05,29,13,45,24.10
2015,05,29,13,46,24.10
2015,05,29,13,47,24.00
2015,05,29,13,48,23.90
2015,05,29,13,49,23.90
2015,05,29,13,50,23.90
2015,05,29,13,51,23.90
2015,05,29,13,52,24.00
2015,05,29,13,53,24.00
2015,05,29,13,54,24.00
2015,05,29,13,55,24.10
2015,05,29,13,56,24.10
2015,05,29,13,57,24.20
2015,05,29,13,58,24.30
2015,05,29,13,59,24.30
2015,05,29,14,00,24.40
2015,05,29,14,01,24.40
2015,05,29,14,02,24.40
2015,05,29,14,03,24.20
2015,05,29,14,04,24.00
2015,05,29,14,05,24.00
2015,05,29,14,06,24.10
2015,05,29,14,07,24.30
2015,05,29,14,08,24.30
2015,05,29,14,09,24.20
2015,05,29,14,10,24.20
2015,05,29,14,11,24.20
2015,05,29,14,12,24.20
2015,05,29,14,13,24.10
2015,05,29,14,14,24.10
2015,05,29,14,15,24.10
2015,05,29,14,16,24.10
2015,05,29,14,17,24.10
2015,05,29,14,18,24.20
2015,05,29,14,19,24.20
2015,05,29,14,20,24.20
2015,05,29,14,21,24.20
2015,05,29,14,22,24.10
2015,05,29,14,23,24.20
2015,05,29,14,24,24.20
2015,05,29,14,25,24.20
2015,05,29,14,26,24.20
2015,05,29,14,27,24.20
2015,05,29,14,28,24.20
2015,05,29,14,29,24.10
2015,05,29,14,30,24.20
2015,05,29,14,31,24.30
2015,05,29,14,32,24.20
2015,05,29,14,33,24.20
2015,05,29,14,34,24.20
2015,05,29,14,35,24.20
2015,05,29,14,36,24.20
2015,05,29,14,37,24.10
2015,05,29,14,38,24.00
2015,05,29,14,39,23.90
2015,05,29,14,40,23.80
2015,05,29,14,41,23.60
2015,05,29,14,42,23.60
2015,05,29,14,43,23.70
2015,05,29,14,44,23.70
2015,05,29,14,45,23.80
2015,05,29,14,46,23.80
2015,05,29,14,47,23.80
2015,05,29,14,48,23.70
2015,05,29,14,49,23.80
2015,05,29,14,50,23.80
2015,05,29,14,51,24.00
2015,05,29,14,52,24.30
2015,05,29,14,53,24.40
2015,05,29,14,54,24.50
2015,05,29,14,55,24.50
2015,05,29,14,56,24.40
2015,05,29,14,57,24.30
2015,05,29,14,58,24.30
2015,05,29,14,59,24.30
2015,05,29,15,00,24.30
2015,05,29,15,01,24.30
2015,05,29,15,02,24.30
2015,05,29,15,03,24.40
2015,05,29,15,04,24.50
2015,05,29,15,05,24.50
2015,05,29,15,06,24.50
2015,05,29,15,07,24.40
2015,05,29,15,08,24.30
2015,05,29,15,09,24.30
2015,05,29,15,10,24.20
2015,05,29,15,11,24.10
2015,05,29,15,12,24.10
2015,05,29,15,13,24.10
2015,05,29,15,14,24.20
2015,05,29,15,15,24.30
2015,05,29,15,16,24.40
2015,05,29,15,17,24.50
2015,05,29,15,18,24.60
2015,05,29,15,19,24.40
2015,05,29,15,20,24.40
2015,05,29,15,21,24.30
2015,05,29,15,22,24.30
2015,05,29,15,23,24.30
2015,05,29,15,24,24.30
2015,05,29,15,25,24.40
2015,05,29,15,26,24.50
2015,05,29,15,27,24.50
2015,05,29,15,28,24.50
2015,05,29,15,29,24.40
2015,05,29,15,30,24.40
2015,05,29,15,31,24.30
2015,05,29,15,32,24.20
2015,05,29,15,33,24.20
2015,05,29,15,34,24.30
2015,05,29,15,35,24.30
2015,05,29,15,36,24.30
2015,05,29,15,37,24.30
2015,05,29,15,38,24.30
2015,05,29,15,39,24.20
2015,05,29,15,40,24.20
2015,05,29,15,41,24.20
2015,05,29,15,42,24.30
2015,05,29,15,43,24.30
2015,05,29,15,44,24.30
2015,05,29,15,45,24.20
2015,05,29,15,46,24.30
2015,05,29,15,47,24.30
2015,05,29,15,48,24.30
2015,05,29,15,49,24.30
2015,05,29,15,50,24.30
2015,05,29,15,51,24.50
2015,05,29,15,52,24.60
2015,05,29,15,53,24.70
2015,05,29,15,54,24.70
2015,05,29,15,55,24.60
2015,05,29,15,56,24.70
2015,05,29,15,57,24.80
2015,05,29,15,58,24.90
2015,05,29,15,59,24.90
2015,05,29,16,00,25.00
2015,05,29,16,01,25.10
2015,05,29,16,02,25.00
2015,05,29,16,03,25.00
2015,05,29,16,04,24.90
2015,05,29,16,05,24.90
2015,05,29,16,06,25.00
2015,05,29,16,07,25.10
2015,05,29,16,08,25.20
2015,05,29,16,09,25.20
2015,05,29,16,10,25.30
2015,05,29,16,11,25.30
2015,05,29,16,12,25.40
2015,05,29,16,13,25.50
2015,05,29,16,14,25.60
2015,05,29,16,15,25.60
2015,05,29,16,16,25.60
2015,05,29,16,17,25.60
2015,05,29,16,18,25.60
2015,05,29,16,19,25.70
2015,05,29,16,20,25.80
2015,05,29,16,21,25.90
2015,05,29,16,22,26.00
2015,05,29,16,23,26.10
2015,05,29,16,24,26.10
2015,05,29,16,25,26.00
2015,05,29,16,26,25.90
2015,05,29,16,27,25.70
2015,05,29,16,28,25.50
2015,05,29,16,29,25.40
2015,05,29,16,30,25.40
2015,05,29,16,31,25.50
2015,05,29,16,32,25.60
2015,05,29,16,33,25.70
2015,05,29,16,34,25.90
2015,05,29,16,35,25.90
2015,05,29,16,36,25.90
2015,05,29,16,37,25.90
2015,05,29,16,38,25.90
2015,05,29,16,39,25.90
2015,05,29,16,40,26.00
2015,05,29,16,41,26.00
2015,05,29,16,42,26.10
2015,05,29,16,43,26.10
2015,05,29,16,44,26.20
2015,05,29,16,45,26.30
2015,05,29,16,46,26.30
2015,05,29,16,47,26.30
2015,05,29,16,48,26.20
2015,05,29,16,49,26.20
2015,05,29,16,50,26.20
2015,05,29,16,51,26.10
2015,05,29,16,52,26.10
2015,05,29,16,53,26.10
2015,05,29,16,54,26.10
2015,05,29,16,55,26.10
2015,05,29,16,56,26.00
2015,05,29,16,57,25.90
2015,05,29,16,58,25.80
2015,05,29,16,59,25.70
2015,05,29,17,00,25.60
2015,05,29,17,01,25.60
2015,05,29,17,02,25.60
2015,05,29,17,03,25.50
2015,05,29,17,04,25.50
2015,05,29,17,05,25.60
2015,05,29,17,06,25.50
2015,05,29,17,07,25.60
2015,05,29,17,08,25.60
2015,05,29,17,09,25.70
2015,05,29,17,10,25.80
2015,05,29,17,11,25.80
2015,05,29,17,12,25.80
2015,05,29,17,13,25.70
2015,05,29,17,14,25.70
2015,05,29,17,15,25.70
2015,05,29,17,16,25.60
2015,05,29,17,17,25.60
2015,05,29,17,18,25.50
2015,05,29,17,19,25.40
2015,05,29,17,20,25.40
2015,05,29,17,21,25.50